Theta_e
317 316 315 314 314 315 316 316 317 319 320 320 317 319 319 318 320 320 320 321 333 334 334 339 342 342 343 340 350 353 356 350 347 351 349 349 348 348 351 349 350 348 345 344
318 317 317 318 318 317 317 317 318 319 320 321 320 320 320 320 320 319 320 319 333 332 334 338 344 344 344 345 344 355 356 358 355 350 354 353 353 352 350 351 350 350 348 344
318 319 321 320 320 321 320 320 320 320 320 320 319 319 319 321 319 319 325 325 332 333 335 341 342 343 351 353 353 350 346 360 358 358 355 354 354 355 355 354 353 351 348 345
320 320 321 321 321 321 320 321 321 320 319 319 320 319 319 319 318 318 327 329 330 338 341 340 341 345 348 348 349 349 351 352 359 356 357 357 358 356 356 356 354 351 350 348
319 321 321 322 322 321 321 320 320 321 320 320 319 317 317 319 320 318 325 326 331 339 338 337 336 339 343 343 340 344 344 348 353 356 356 355 354 356 355 354 355 351 348 346
319 319 320 320 321 321 323 323 321 320 317 319 320 319 319 319 321 323 325 334 338 337 336 335 335 334 336 335 336 335 335 338 344 346 348 350 349 351 351 352 352 351 348 348
320 320 322 323 323 321 322 322 323 323 320 321 320 321 325 331 329 326 330 334 334 334 334 334 333 331 331 334 333 332 333 333 335 336 339 342 343 344 347 348 348 349 352 349
322 324 321 320 323 323 323 319 323 324 325 326 324 330 340 332 326 328 324 332 329 326 326 331 330 329 331 333 332 331 330 331 331 332 334 337 336 336 339 340 343 346 348 348
321 322 320 320 321 323 324 323 320 321 325 326 325 327 337 332 329 327 325 323 326 326 325 322 324 328 331 331 333 333 329 329 329 329 328 330 335 336 334 336 339 341 346 346
319 320 319 318 324 323 322 321 326 324 328 327 325 335 337 337 330 328 326 325 322 319 321 320 320 321 323 322 321 321 322 328 328 330 328 327 329 330 335 335 335 337 338 342
317 320 319 320 323 324 328 328 326 323 330 333 330 336 334 332 330 329 327 324 322 321 318 316 316 315 316 316 317 317 317 319 319 320 324 327 326 328 327 329 334 337 337 337
318 318 320 319 317 322 326 327 328 329 329 331 329 334 331 330 327 325 324 324 322 320 319 318 315 315 315 315 315 315 315 316 317 319 319 318 321 326 324 323 326 330 338 335
314 315 318 320 319 321 323 322 324 323 325 326 328 331 325 326 327 324 324 323 321 320 319 317 315 314 314 314 314 314 314 314 315 316 318 318 318 318 324 323 321 323 326 335
314 314 316 317 318 320 322 322 321 320 324 324 323 327 327 324 322 323 323 322 321 318 317 314 312 313 313 313 314 314 314 313 313 314 315 316 317 318 318 323 321 321 321 323
313 315 317 316 316 316 318 319 322 320 317 316 318 321 325 322 322 321 319 317 317 316 314 313 312 311 313 313 313 313 312 313 313 313 313 313 314 316 317 317 321 319 320 322
318 318 319 320 318 318 319 318 319 319 314 313 314 316 316 318 317 317 317 316 315 315 314 313 312 312 313 312 312 313 313 313 312 312 313 313 313 314 314 317 320 319 321 320
315 316 317 318 318 318 320 318 315 314 313 313 313 314 314 314 315 312 314 315 315 314 313 312 311 312 312 311 310 310 310 310 311 313 312 313 313 313 313 314 318 321 320 319
314 314 314 315 316 319 318 315 312 310 315 315 311 313 313 314 314 313 312 312 313 313 313 311 311 311 310 309 309 310 310 310 310 310 310 311 312 313 313 313 314 319 320 320
313 313 313 313 316 317 316 315 314 313 318 317 316 316 315 316 314 313 313 312 311 311 311 311 310 309 309 309 309 310 309 309 308 309 309 309 310 311 312 314 314 313 317 320
314 312 313 314 316 318 319 316 312 312 316 316 315 315 315 313 313 314 312 311 311 311 311 309 310 309 310 308 310 309 309 308 309 309 309 310 310 310 311 311 311 313 314 316
313 314 313 311 312 315 316 317 315 313 317 315 314 313 312 312 312 312 311 311 311 310 310 309 309 310 309 308 308 308 309 309 309 309 309 310 310 310 309 310 310 311 311 315
317 316 313 313 313 312 315 316 318 316 316 314 312 312 312 312 311 311 310 309 309 310 310 309 309 308 307 307 308 309 310 310 309 310 310 310 311 312 312 311 311 312 312 311
315 316 317 317 314 315 316 317 317 317 314 312 312 312 311 311 310 310 309 309 309 310 309 309 309 308 308 307 308 309 309 309 310 311 311 310 312 311 312 313 313 313 312 311
314 315 317 315 316 315 314 316 314 315 313 311 311 310 310 311 310 309 308 308 308 309 307 308 308 307 308 308 309 308 309 309 310 310 310 311 310 311 312 312 312 313 312 312
309 312 314 314 313 314 315 315 314 313 312 311 311 310 309 308 308 308 307 307 307 308 308 307 307 307 308 307 309 310 309 310 310 310 310 310 311 311 311 311 312 312 312 312
308 310 310 311 314 313 314 313 312 312 310 310 310 309 308 307 305 306 304 305 306 306 306 306 307 307 308 308 309 309 310 309 309 309 309 309 308 308 310 311 311 312 311 312
Wind_Speed
6 3 6 12 11 13 12 17 17 16 17 12 10 8 7 9 3 7 8 5 13 12 8 21 22 17 15 14 7 14 20 27 27 24 23 22 22 20 15 18 15 21 27 27
5 8 11 13 12 12 12 14 15 15 15 5 6 6 7 6 4 7 10 9 14 9 9 12 23 20 15 15 13 7 11 14 21 27 24 22 19 20 23 19 22 18 24 28
9 9 13 14 16 15 12 9 9 9 12 7 7 5 6 4 7 5 3 11 11 12 10 11 15 19 27 30 29 16 9 6 15 18 22 21 21 21 19 22 27 27 19 25
10 11 15 16 16 11 7 9 13 10 6 9 2 6 6 6 11 8 8 16 14 14 14 13 13 20 25 29 27 27 17 9 10 13 13 14 16 14 16 13 26 28 26 27
12 10 13 15 16 16 17 10 11 7 6 3 12 2 7 6 9 10 10 11 13 18 18 16 15 22 27 31 26 22 25 24 14 4 9 7 8 11 13 17 13 27 28 24
12 13 13 18 20 19 18 14 9 4 4 7 5 6 7 9 6 5 9 19 20 18 18 17 24 28 28 28 25 24 27 26 22 19 13 12 10 7 8 11 10 17 23 23
11 10 5 16 15 12 19 3 5 7 3 6 7 4 6 16 24 3 17 16 18 16 16 17 16 20 27 22 22 21 24 26 26 26 26 22 21 17 12 12 12 10 10 22
5 6 10 18 10 5 9 4 4 6 6 3 6 2 2 10 20 26 29 12 14 10 13 14 15 25 24 18 18 19 21 21 21 21 22 23 23 21 18 16 13 11 11 12
5 4 19 14 13 2 6 5 9 9 4 3 4 4 1 15 22 22 24 25 20 8 8 9 19 24 23 16 15 15 17 18 17 17 18 18 18 19 19 18 16 14 13 13
8 6 7 15 7 10 1 1 4 6 0 4 3 1 6 1 8 13 20 19 21 22 15 5 14 19 24 22 22 22 22 16 16 14 15 15 15 15 16 18 18 16 14 13
7 3 7 8 2 2 6 4 3 4 3 2 3 1 5 5 8 7 7 9 13 18 8 12 13 25 30 27 24 20 23 18 18 17 15 12 12 12 13 15 16 17 17 14
2 4 4 12 12 6 9 3 3 2 4 5 3 0 4 9 10 11 6 3 6 6 12 15 17 23 25 25 23 22 23 20 21 18 15 16 15 10 11 12 13 16 14 14
3 4 5 8 4 6 6 2 3 6 9 7 1 2 5 7 9 11 14 12 8 9 10 8 3 12 19 21 18 16 19 21 22 21 17 17 18 17 14 9 12 13 14 12
5 2 3 4 8 3 3 8 4 5 4 5 4 3 5 6 9 12 11 12 12 12 14 4 6 13 21 18 17 16 18 20 21 22 22 20 20 22 20 10 10 11 13 13
5 4 5 10 13 15 8 11 9 12 15 6 4 5 10 10 9 10 11 7 9 10 5 8 7 10 15 14 15 18 19 18 17 20 23 24 26 23 22 20 13 9 9 10
3 3 6 7 13 16 11 15 14 24 11 9 7 3 7 6 8 8 10 8 2 11 12 9 8 12 11 12 16 17 16 18 19 18 19 22 25 26 26 24 17 10 7 11
4 2 2 4 10 14 8 6 4 6 7 4 4 3 4 8 9 7 12 14 12 10 8 7 7 11 14 15 17 19 20 21 22 23 19 21 22 26 26 28 25 13 9 10
5 3 2 4 7 3 6 6 6 5 12 14 6 1 7 11 14 14 11 9 8 8 8 7 10 11 11 13 16 19 15 15 18 19 22 22 25 25 25 23 24 25 15 10
9 5 1 2 3 8 11 4 5 4 6 14 17 13 12 14 15 7 7 8 8 5 6 8 9 10 11 9 13 11 12 16 20 21 20 23 24 26 28 27 23 20 20 18
10 6 5 1 1 3 7 10 8 7 1 7 12 11 11 10 5 1 6 6 6 9 11 12 10 11 11 10 11 17 16 15 19 18 19 20 21 23 23 26 28 24 23 21
2 1 7 3 3 5 7 8 5 2 4 4 6 7 8 6 3 1 5 5 8 7 10 9 15 7 9 13 16 19 17 16 21 22 24 24 23 24 27 25 25 28 27 23
5 3 4 3 3 5 6 4 4 5 2 4 6 6 7 5 5 6 7 7 7 7 9 12 10 8 14 16 19 19 22 24 22 22 25 25 24 26 26 26 26 25 26 24
1 4 3 1 4 3 2 6 4 2 5 5 6 6 7 6 5 5 5 7 9 11 15 10 7 9 14 19 19 20 24 24 24 22 20 24 23 26 25 24 26 26 25 21
3 3 2 2 4 9 1 4 7 4 6 8 8 6 5 4 5 6 5 4 7 6 10 8 10 14 16 18 19 23 22 24 21 22 20 20 22 23 22 22 23 23 22 22
5 4 5 4 5 10 6 3 9 5 7 8 5 5 7 6 5 4 5 7 10 10 15 14 13 16 14 21 22 21 23 20 17 19 17 19 18 18 20 22 19 22 23 24
3 3 2 3 3 3 7 9 4 9 8 7 5 3 5 7 8 8 6 9 10 11 14 15 16 16 18 23 22 25 16 10 12 12 13 17 20 21 20 22 23 21 23 23
Wind_Direction
262 201 237 245 229 234 253 273 282 289 289 318 172 179 236 252 237 137 152 178 120 113 105 90 108 108 76 61 75 180 160 191 193 185 194 206 212 222 230 235 231 224 218 208
273 249 241 254 261 260 259 258 273 283 285 306 298 233 218 273 268 200 177 173 136 125 117 103 95 84 77 55 46 99 181 176 188 196 189 192 203 222 234 238 241 240 216 211
244 261 271 253 251 258 261 271 273 264 307 317 318 293 221 237 298 273 99 116 124 133 124 106 94 80 76 56 44 47 46 179 181 183 198 206 221 224 223 231 234 229 212 210
266 276 269 273 281 276 245 257 273 273 285 285 52 285 276 220 245 264 143 118 127 108 96 84 75 72 71 62 49 44 51 59 183 206 214 208 215 213 230 252 229 222 230 226
276 271 272 276 268 277 275 233 259 278 260 267 277 266 271 268 243 232 162 136 113 113 107 93 80 83 80 69 56 50 54 56 70 131 224 251 249 249 258 252 278 230 229 232
267 274 272 280 284 283 282 275 257 273 241 263 238 212 275 277 277 178 148 125 119 114 108 102 90 81 80 79 69 57 56 55 59 55 49 43 33 0 317 317 350 225 225 226
286 259 25 31 356 339 347 262 282 253 279 225 229 252 82 10 1 229 135 119 115 115 112 104 98 89 79 76 80 71 64 56 57 55 49 43 37 28 4 346 348 339 234 231
1 355 39 340 334 237 322 43 269 219 219 269 354 324 59 44 25 21 31 27 74 71 85 110 111 100 100 100 106 96 84 76 64 58 54 47 37 31 21 9 352 334 307 300
343 312 331 343 345 23 280 303 321 296 138 66 217 227 64 26 35 28 23 28 10 30 75 70 109 119 119 106 108 103 95 89 80 66 57 52 42 30 26 12 3 349 332 302
335 314 318 320 22 341 263 270 7 357 109 222 221 127 228 352 59 33 34 22 14 11 21 355 73 93 95 71 54 52 47 59 62 73 61 52 41 29 22 15 12 1 342 317
14 339 310 343 188 161 344 15 15 183 115 300 312 133 308 336 113 79 75 31 28 327 28 352 41 60 63 55 52 37 26 38 32 36 44 43 38 27 18 14 8 359 358 342
70 258 295 287 292 31 112 18 68 319 315 234 216 202 114 129 148 146 159 209 145 288 334 317 36 51 53 50 39 25 16 25 21 15 7 5 5 358 359 356 359 8 352 348
351 345 332 336 14 64 88 248 227 258 232 249 72 186 86 118 144 164 172 181 192 227 236 239 41 78 59 45 36 19 7 16 10 1 358 352 345 345 331 339 346 342 349 341
110 232 238 244 270 264 296 301 267 257 256 230 217 154 204 170 161 161 177 178 205 220 224 169 75 66 55 37 28 22 9 3 355 353 351 343 335 329 329 306 326 334 343 345
147 222 290 292 292 300 246 263 268 260 268 280 281 191 205 204 194 206 186 140 186 192 122 85 68 58 45 32 21 3 354 346 350 344 337 331 328 324 317 323 293 306 325 330
353 310 330 314 311 300 329 317 224 236 269 293 306 83 147 145 122 127 160 187 169 77 77 63 53 42 31 16 6 345 344 335 326 323 321 321 322 327 326 318 306 273 295 307
298 324 349 275 313 325 308 268 343 26 14 7 30 91 105 75 92 89 77 72 67 66 61 52 41 43 34 10 351 342 336 332 335 327 311 310 312 318 323 327 330 287 292 301
243 268 237 278 321 254 249 345 47 28 35 4 313 345 100 95 76 64 58 71 62 56 47 34 39 46 26 359 341 324 323 336 331 330 330 332 340 326 320 325 332 333 286 276
188 187 248 171 259 290 311 29 17 43 58 18 43 57 70 99 79 40 58 52 82 73 60 16 40 7 344 350 342 340 331 325 317 311 317 319 320 326 328 333 321 320 322 292
177 161 148 222 265 270 307 342 14 350 73 359 57 39 25 23 61 236 76 82 67 25 33 5 1 356 332 344 337 332 314 315 306 314 312 311 313 315 321 323 323 332 318 300
20 213 199 192 222 272 236 255 322 282 200 77 58 65 52 59 140 274 47 41 66 20 344 357 334 336 350 333 320 310 308 292 301 302 301 307 306 311 310 306 308 312 313 325
172 175 232 168 213 271 342 26 2 184 103 76 65 75 72 52 15 20 22 10 358 344 331 327 317 323 320 318 317 311 294 298 301 297 290 295 296 300 299 300 302 303 304 306
53 156 229 292 219 236 44 341 358 328 139 91 86 61 45 37 13 357 1 341 329 332 327 316 323 304 307 309 305 306 307 307 302 293 291 296 299 304 302 296 296 297 295 294
355 135 139 339 331 309 140 100 19 81 48 73 65 59 51 32 358 339 337 314 307 314 322 322 315 295 289 303 294 298 300 302 294 297 295 297 302 300 302 303 300 292 289 286
247 166 196 209 216 291 355 108 208 87 81 78 76 47 34 21 334 304 0 6 350 0 350 331 318 310 314 317 315 304 308 308 305 307 308 311 309 315 310 309 300 297 298 291
275 285 150 249 5 131 172 181 80 96 86 72 61 20 9 6 354 22 344 331 337 345 330 325 323 320 319 319 313 317 320 315 324 317 313 312 311 313 309 307 311 307 303 293